Regional Weather Roundup
Issued by NWS

Home | Current Version | Previous Version | Text Only | Print | Product List | Glossary On
Versions: 1 2 3 4 5 6 7 8 9 10 11 12 13 14 15 16 17 18 19 20 21 22 23 24 25 26 27 28 29 30 31 32 33 34 35 36 37 38 39 40 41 42 43 44 45 46 47 48 49 50
000
ASHW40 PHFO 230043
RWRHI

WEATHER ROUNDUP FOR HAWAII
NATIONAL WEATHER SERVICE HONOLULU HI
200 PM HST TUE AUG 22 2017

THIS IS AN AUTOMATED REPORT THAT HAS NOT BEEN QUALITY CONTROLLED.

NOTE..."FAIR" INDICATES FEW OR NO CLOUDS BELOW 12,000 FEET WITH NO
SIGNIFICANT WEATHER AND/OR OBSTRUCTIONS TO VISIBILITY.

* - THESE SITES REPORT LIMITED FIELDS
# - BUOY DATA PROVIDED BY PACIFIC ISLANDS OCEAN OBSERVING SYSTEM.

HIZ001>004-230100-
KAUAI-NIIHAU-

CITY           SKY/WX    TMP DP  RH WIND       PRES   REMARKS
LIHUE APT      PTSUNNY   86  75  69 NE14      30.03S HX  95
PORT ALLEN*      N/A     90 N/A N/A E22         N/A
POIPU*           N/A     84 N/A N/A NE10G20     N/A
PRINCEVILLE*     N/A     82 N/A N/A E12G20      N/A
KOKOLE POINT*  NOT AVBL
MOLOAA DAIRY*    N/A     86  75  70 E10G17      N/A  HX  95
WAIMEA HTS*      N/A     88  72  58 E6G16       N/A  HX  94
PUU OPAE*        N/A     81  64  57 W6G12       N/A
PUU LUA*       NOT AVBL
MAKAHA RIDGE*    N/A     84  64  51 NW3         N/A
$$

HIZ005>011-230100-
OAHU-

CITY           SKY/WX    TMP DP  RH WIND       PRES   REMARKS
HONOLULU       MOSUNNY   83  70  64 NE21G28   29.99S
KALAELOA       CLOUDY    88  71  57 E13G21    30.00S HX  94
KANEOHE MCB    NOT AVBL
WHEELER FIELD  PTSUNNY   84  72  65 E15       30.01S
BELLOWS*         N/A    N/A N/A N/A NE17        N/A
KAHUKU*          N/A    N/A N/A N/A NE12G24     N/A
WHEELER*         N/A    N/A N/A N/A NE8G21      N/A
WAIANAE HARBOR   N/A    N/A N/A N/A W10         N/A
DILLINGHAM*      N/A     70  55  60 SW8G17      N/A
KAHUKU TRN*      N/A     88  77  70 W10G21      N/A  HX 100
KAWAILOA*        N/A     81  70  69 E12G25      N/A
KII*             N/A     84  75  74 E18G24      N/A  HX  92
MAKUA RANGE*     N/A     88  73  62 E6          N/A  HX  96
OAHU FOREST NW   N/A     73  70  88 E7G28       N/A
SCHOFIELD BRK*   N/A     82  70  65 MISG        N/A
SCHOFIELD S*   NOT AVBL
WAIANAE VLY*     N/A     75  63  64 N7G20       N/A
KUAOKALA*        N/A     81  70  69 NE18G29     N/A
HONOULIUULI*   NOT AVBL
MOKUOLOE IS*   NOT AVBL
PALEHUA*         N/A     79  68  69 NE8G18      N/A
WAIAWA PHB*    NOT AVBL
$$

HIZ012>013-230100-
MOLOKAI-

CITY           SKY/WX    TMP DP  RH WIND       PRES   REMARKS
MOLOKAI AIRPT  PTSUNNY   88  72  58 NE20G28   30.00S HX  94
KALAUPAPA      NOT AVBL
MAKAPULAPAI*     N/A     86  72  62 E20G28      N/A  HX  92
MOLOKAI 1*       N/A     70  59  68 E3G15       N/A
PUU ALII*        N/A     68  68 100 NE3G13      N/A
$$

HIZ016-230100-
KAHOOLAWE-

CITY           SKY/WX    TMP DP  RH WIND       PRES   REMARKS
KAHOOLAWE*     NOT AVBL
HAKIOAWA*        N/A     79  70  74 MISG      30.41F
HONOKANAIA*      N/A     87  71  59 NE21G35   29.92F HX  93
KANELOA*         N/A     82  73  74 E25G41    30.05F
KEALIALALO*    NOT AVBL
LUA MAKIKA*    NOT AVBL
$$

HIZ014>015-230100-
LANAI-

CITY           SKY/WX    TMP DP  RH WIND       PRES   REMARKS
LANAI CITY     CLOUDY    78  71  79 NW10      30.06S
LANAI 1*         N/A     79  70  73 NE22        N/A
$$

HIZ017>028-230100-
MAUI-

CITY           SKY/WX    TMP DP  RH WIND       PRES   REMARKS
KAHULUI        MOSUNNY   87  69  54 E28G36    29.98S HX  91
KAPALUA-W MAUI PTSUNNY   84  70  61 E21G26    30.01
HANA AIRPORT   CLOUDY    82  72  69 E7        30.05S
HANA*          NOT AVBL
HALEAKALA SUMM NOT AVBL
MAALAEA BAY*     N/A     90 N/A N/A N22G33      N/A
HALEAKALA*     NOT AVBL
KAUPO GAP*     NOT AVBL
KULA 1*          N/A     66  62  87 NW5         N/A
$$

HIZ023>026-230100-
BIG ISLAND OF HAWAII COAST AND LOWER SLOPES-

CITY           SKY/WX    TMP DP  RH WIND       PRES   REMARKS
KAILUA KONA    CLOUDY    86  73  65 SW12      29.95F HX  93
HILO           CLOUDY    81  73  76 W8        30.01S
HONOKAA*         N/A     75 N/A N/A VRB1        N/A
KAWAIHAE MWT*    N/A     84 N/A N/A W8          N/A
KAWAIHAE*        N/A     82 N/A N/A W6        29.96S
SOUTH POINT*     N/A     75 N/A N/A N17G28      N/A
UPOLU AIRPORT* NOT AVBL
KAMUELA*         N/A     75  64  69 NE21      30.10S
HAKALAU*         N/A     67  64  91 E3          N/A
KALOKO-HONOKO*   N/A     88  73  62 W8        29.94F HX  96
PALI 2*          N/A     79  66  65 SW16G24     N/A
KEALAKOMO*       N/A     84  70  61 NE14G22     N/A
KAUPULEHU*       N/A     81  72  74 W9G17       N/A
KAPAPALA*        N/A     75  74  97 E6G13       N/A
LOWER KAHUKU*    N/A     68  68 100 NE3G14      N/A
PUHE CS*         N/A     84  72  65 W3G9        N/A
PUHO CS*         N/A     88  72  59 W3          N/A  HX  95
PTA KEAMUKU*     N/A     75  68  78 N13G25      N/A
WAIKOLOA*        N/A     84  68  58 NE12G18     N/A
$$

HIZ027>028-230100-
BIG ISLAND OF HAWAII INTERIOR AND SUMMMITS-

CITY           SKY/WX    TMP DP  RH WIND       PRES   REMARKS
BRADSHAW FIELD CLOUDY    71  58  62 CALM      30.34S
MK VISITOR CEN   N/A     57  41  54 E13         N/A
MAUNA KEA*       N/A     41  28  60 NE14        N/A
MAUNA LOA*       N/A    N/A N/A N/A MISG        N/A
MAUNA LOA 1*   NOT AVBL
PTA KIPUKA*      N/A     70  64  83 S9G17       N/A
PTA RANGE 17*    N/A     73  68  83 SE13G20     N/A
PTA WEST*        N/A     57  55  94 NW9G16      N/A
NENE CABIN*      N/A     63  63 100 E12G18      N/A
AHUMOA*          N/A     65  61  88 NW3G10      N/A
PTA PORTABLE*  NOT AVBL
PUU MALI*        N/A     70  63  78 NW6G12      N/A
$$

HIC003-230100-
NORTHWEST ISLANDS-

CITY           SKY/WX    TMP DP  RH WIND       PRES   REMARKS
MIDWAY ISLAND  PTSUNNY   84  75  74 NE14      30.14F HX  92
MIDWAY NOS*      N/A     82 N/A N/A MISG      30.14S
FRENCH FRIGATE NOT AVBL
$$

PHZ110>124-180-230100-
BUOY REPORTS

STATION/POSITION TIME  TEMP    WIND        PRES    WAVE   SWELL
                       AIR SEA DIR/SP/G            HT/PER HT/DIR
                 (UTC) (F)     (DEG/KT/KT) (MB)    (FT/S) (FT/D)
BUOY 51001       0030   80 82   80/ 14/ 17 1017.4F
BUOY 51101       2350   80 82   70/ 14/ 16 1017.9F   5/ 8   3/100
BUOY 51100       NOT AVBL
BUOY 51002       0030   81 81   70/ 14/ 17 1013.1F
BUOY 51003       2350   82 83   60/ 14/ 16 1014.7F   5/11   3/130
BUOY 51004       2350      80   70/ 16/ 19 1013.9F   8/ 8   5/150
WAIMEA BAY#      0002      79                N/A     4/ 6
MOKAPU POINT#    0004      81                N/A     6/ 7   2/140
LANAI#           NOT AVBL
BARBERS PT 2#    NOT AVBL
PAUWELA#         0009      80                N/A     6/ 8
HILO#            0027      81                N/A     7/ 8   2/ 90
KANEOHE BAY#     NOT AVBL
KANEOHE BAY 2#   NOT AVBL
HANALEI#         0022      81                N/A     5/ 8
KAHULUI HARBOR   0012   83 82   60/ 17/ 24 1015.3
HONOLULU HARBOR  0018   85 81  110/ 10/ 17 1016.3
PEARL HARBOR#    0000      81                N/A     3/11   2/160
KILO NALU        NOT AVBL
HILO HARBOR      0018   81 80  300/  5/  6 1015.9
MOKUOLOE         2336   83 83   90/ 12/ 17 1016.4F
NAWILIWILI       0018   81      60/ 12/ 15 1016.5
WHOTS BUOY       NOT AVBL
BUOY 51028       NOT AVBL
$$

......................KEY........................................
  SKY/WX - SKY CONDITIONS/PRESENT WEATHER
  TMP    - TEMPERATURE IN FAHRENHEIT
  DWPT   - DEWPOINT IN FAHRENHEIT
  RH     - RELATIVE HUMIDITY IN PERCENT
  WIND   - DIRECTION AND SPEED /MPH FOR ISLANDS...KTS FOR BUOYS/
  PRES   - MEAN SEA LEVEL PRESSURE IN INCHES OF HG
  VSB    - VISIBILITY IN MILES
  HX     - HEAT INDEX
  WCI    - WIND CHILL INDEX
  VRB    - VARIABLE WIND DIRECTION
  N/A    - NOT AVAILABLE




USA.gov is the U.S. government's official web portal to all federal, state and local government web resources and services.